Weather History for Poplar Bluff, MO

Change the Weather History Date:

Monday, February 18, 2013

  Actual Average Record
Temperature  
Mean Temperature 46 °F -  
Max Temperature 54 °F 48 °F 76 °F (1961)
Min Temperature 39 °F 29 °F -7 °F (1936)
Degree Days  
Heating Degree Days 18    
Moisture  
Dew Point 44 °F    
Average Humidity 80    
Maximum Humidity 93    
Minimum Humidity 63    
Precipitation  
Precipitation 0.73 in - - ()
Sea Level Pressure  
Sea Level Pressure 29.82 in    
Wind  
Wind Speed 13 mph (SSW)    
Max Wind Speed 28 mph    
Max Gust Speed 40 mph    
Visibility 8 miles    
Events Rain , Thunderstorm    
Averages and records for this station are not official NWS values.
T = Trace of Precipitation, MM = Missing Value Source: NWS Daily Summary

Daily Weather History Graph

Daily Weather History Graph

Search for Another Location

Airport:

Trip Planner

Search our weather history database for the weather conditions in past years. The results will help you decide how hot, cold, wet, or windy it might be!

Date:

Astronomy

Feb. 18, 2013 Rise Set
Actual Time 6:45 AM CST 5:45 PM CST
Civil Twilight 6:19 AM CST 6:11 PM CST
Nautical Twilight 5:49 AM CST 6:41 PM CST
Astronomical Twilight 5:19 AM CST 7:11 PM CST
Moon 11:35 AM CST (2/18) 1:21 AM CST (2/18)
Length of Visible Light 11h 52m
Length of Day
10h 59m
First Quarter, 58% of the Moon is Illuminated
Feb 18
First Quarter
Feb 25
Full
Mar 4
Last Quarter
Mar 11
New
Mar 19
First Quarter

Hourly Weather History & Observations

Time (CST) Temp. Windchill Dew Point Humidity Pressure Visibility Wind Dir Wind Speed Gust Speed Precip Events Conditions
12:53 AM 39.9 °F 36.7 °F 30.9 °F 70% 30.00 in 10.0 mi SSE 4.6 mph - N/A   Clear
1:53 AM 45.0 °F 41.2 °F 33.1 °F 63% 29.98 in 10.0 mi South 6.9 mph - N/A   Clear
2:53 AM 45.0 °F 39.7 °F 35.1 °F 68% 29.98 in 10.0 mi South 10.4 mph - N/A   Clear
3:53 AM 45.0 °F 39.7 °F 37.0 °F 74% 29.96 in 10.0 mi South 10.4 mph - N/A   Clear
4:53 AM 48.0 °F - 39.0 °F 71% 29.96 in 10.0 mi South 13.8 mph - N/A   Clear
5:53 AM 48.0 °F - 39.9 °F 74% 29.96 in 10.0 mi South 10.4 mph - N/A   Clear
6:53 AM 46.9 °F - 41.0 °F 80% 29.96 in 10.0 mi South 11.5 mph - N/A   Clear
8:53 AM 51.1 °F - 42.1 °F 71% 29.94 in 10.0 mi South 10.4 mph - N/A   Partly Cloudy
9:53 AM 53.1 °F - 42.1 °F 66% 29.93 in 10.0 mi South 13.8 mph 24.2 mph N/A   Overcast
10:50 AM 53.6 °F - 42.8 °F 67% 29.91 in 10.0 mi South 16.1 mph 24.2 mph N/A   Overcast
10:53 AM 52.0 °F - 43.0 °F 71% 29.92 in 10.0 mi South 17.3 mph 24.2 mph N/A   Overcast
11:53 AM 51.1 °F - 45.0 °F 80% 29.88 in 3.0 mi South 16.1 mph - 0.03 in Rain Rain
12:02 PM 50.0 °F - 44.6 °F 82% 29.87 in 5.0 mi South 16.1 mph 23.0 mph 0.02 in Rain Light Rain
12:25 PM 50.0 °F - 46.4 °F 87% 29.85 in 10.0 mi South 12.7 mph - 0.05 in Rain Light Rain
12:53 PM 50.0 °F - 46.0 °F 86% 29.85 in 10.0 mi South 13.8 mph - 0.05 in Rain Light Rain
1:14 PM 50.0 °F - 46.4 °F 87% 29.82 in 6.0 mi South 13.8 mph - 0.04 in Rain Light Rain
1:29 PM 51.8 °F - 46.4 °F 82% 29.81 in 10.0 mi South 13.8 mph 25.3 mph 0.04 in   Overcast
1:53 PM 51.1 °F - 46.9 °F 86% 29.80 in 10.0 mi South 16.1 mph 25.3 mph 0.04 in Rain Light Rain
2:09 PM 51.8 °F - 46.4 °F 82% 29.78 in 8.0 mi South 19.6 mph 26.5 mph 0.00 in Rain Light Rain
2:53 PM 52.0 °F - 48.0 °F 86% 29.77 in 10.0 mi South 17.3 mph 26.5 mph 0.01 in Thunderstorm Overcast
3:14 PM 51.8 °F - 48.2 °F 88% 29.73 in 2.0 mi South 21.9 mph 32.2 mph 0.13 in Rain , Thunderstorm Heavy Thunderstorms and Rain
3:24 PM 51.8 °F - 48.2 °F 88% 29.72 in 5.0 mi South 19.6 mph 26.5 mph 0.15 in Rain , Thunderstorm Light Thunderstorms and Rain
3:38 PM 53.6 °F - 48.2 °F 82% 29.71 in 10.0 mi South 17.3 mph 27.6 mph 0.15 in Rain Light Rain
3:53 PM 53.1 °F - 48.0 °F 83% 29.71 in 6.0 mi South 17.3 mph 27.6 mph 0.15 in Rain Rain
4:53 PM 54.0 °F - 48.9 °F 83% 29.68 in 10.0 mi South 16.1 mph 24.2 mph 0.07 in   Overcast
5:53 PM 53.1 °F - 50.0 °F 89% 29.66 in 6.0 mi South 16.1 mph 25.3 mph 0.06 in Rain Light Rain
6:15 PM 53.6 °F - 50.0 °F 88% 29.69 in 8.0 mi SSW 17.3 mph 27.6 mph 0.02 in Rain , Thunderstorm Light Thunderstorms and Rain
6:19 PM 53.6 °F - 48.2 °F 82% 29.72 in 2.5 mi WSW 27.6 mph 40.3 mph 0.04 in Rain , Thunderstorm Heavy Thunderstorms and Rain
6:23 PM 50.0 °F - 46.4 °F 87% 29.73 in 1.8 mi SW 21.9 mph 40.3 mph 0.15 in Rain , Thunderstorm Heavy Thunderstorms and Rain
6:33 PM 48.2 °F - 46.4 °F 93% 29.73 in 2.5 mi SW 15.0 mph 29.9 mph 0.23 in Rain , Thunderstorm Heavy Thunderstorms and Rain
6:39 PM 48.2 °F - 46.4 °F 93% 29.71 in 3.0 mi SSW 11.5 mph 24.2 mph 0.27 in Rain , Thunderstorm Heavy Thunderstorms and Rain
6:53 PM 48.9 °F - 46.0 °F 90% 29.69 in 6.0 mi South 8.1 mph - 0.32 in Rain , Thunderstorm Light Rain
7:16 PM 48.2 °F - 46.4 °F 93% 29.70 in 10.0 mi SW 9.2 mph - 0.00 in   Overcast
7:53 PM 48.9 °F - 45.0 °F 86% 29.72 in 10.0 mi SSW 9.2 mph - 0.00 in   Mostly Cloudy
8:19 PM 50.0 °F - 46.4 °F 87% 29.73 in 10.0 mi WSW 9.2 mph - N/A   Mostly Cloudy
8:53 PM 51.1 °F - 44.1 °F 77% 29.77 in 10.0 mi NW 25.3 mph 33.4 mph N/A   Overcast
9:53 PM 46.0 °F 38.5 °F 37.9 °F 73% 29.85 in 10.0 mi NW 19.6 mph - N/A   Overcast
10:53 PM 45.0 °F 38.2 °F 36.0 °F 71% 29.89 in 10.0 mi NW 15.0 mph - N/A   Overcast
11:37 PM 44.6 °F 38.8 °F 35.6 °F 71% 29.92 in 10.0 mi WNW 11.5 mph - N/A   Overcast
11:53 PM 45.0 °F 37.9 °F 35.1 °F 68% 29.94 in 10.0 mi WNW 16.1 mph 20.7 mph N/A   Overcast